Voltar ao catálogo

JILIN-01 KUANFU 02B 4

AtivoCiênciaSSO
NORAD 61192·PAYLOAD·🇨🇳 China

Lançado Sep 20, 2024 de Taiyuan Satellite Launch Center

Loading…

Próximas Passagens (próximas 24 horas)

TLE

AtualizadoSource: Space-Track

Época: Sep 14, 2026, 14:01 UTC

1 61192U 24169D   26257.58462959  .00003295  00000-0  20977-3 0  9998
2 61192  97.5503 345.0625 0012205 324.4776  35.5639 15.09409860109315

Acompanhe JILIN-01 KUANFU 02B 4 em tempo real com AllMySat

Download on the App Store